• In India
  • List of Countries
  • For 7 days
  • Water Temperature
  • Satellite Maps
  • Weather Map
  • Weather Widgets
  • user-avatar
    Login

    Hourly Weather Darwin

    Today, 26 May, Saturday

    Time Temperature Precipitation Wind Pressure Humidity
    00:00 +27°C° 0 mm 2 mps 758 mmHg 62%
    01:00 +26°C° 0 mm 2 mps 758 mmHg 62%
    02:00 +26°C° 0 mm 3 mps 758 mmHg 62%
    03:00 +25°C° 0 mm 3 mps 758 mmHg 62%
    04:00 +25°C° 0 mm 3 mps 758 mmHg 65%
    05:00 +25°C° 0 mm 3 mps 758 mmHg 68%
    06:00 +25°C° 0 mm 4 mps 759 mmHg 71%
    07:00 +26°C° 0 mm 4 mps 759 mmHg 67%
    08:00 +28°C° 0 mm 4 mps 759 mmHg 63%
    09:00 +30°C° 0 mm 4 mps 759 mmHg 57%
    10:00 +33°C° 0 mm 4 mps 759 mmHg 50%
    11:00 +34°C° 0 mm 4 mps 758 mmHg 42%
    12:00 +36°C° 0 mm 4 mps 758 mmHg 35%
    13:00 +37°C° 0 mm 4 mps 758 mmHg 34%
    14:00 +37°C° 0 mm 3 mps 757 mmHg 32%
    15:00 +37°C° 0 mm 3 mps 757 mmHg 35%
    16:00 +35°C° 0 mm 3 mps 757 mmHg 41%
    17:00 +33°C° 0 mm 3 mps 757 mmHg 46%
    18:00 +31°C° 0 mm 2 mps 757 mmHg 51%
    19:00 +30°C° 0 mm 2 mps 757 mmHg 56%
    20:00 +28°C° 0 mm 2 mps 758 mmHg 61%
    21:00 +27°C° 0 mm 2 mps 759 mmHg 67%
    22:00 +27°C° 0 mm 2 mps 759 mmHg 70%
    23:00 +26°C° 0 mm 2 mps 759 mmHg 73%

    Tomorrow, 27 May, Sunday

    Time Temperature Precipitation Wind Pressure Humidity
    00:00 +26°C° 0 mm 2 mps 759 mmHg 76%
    01:00 +26°C° 0 mm 2 mps 759 mmHg 77%
    02:00 +25°C° 0 mm 3 mps 759 mmHg 77%
    03:00 +25°C° 0 mm 3 mps 759 mmHg 78%
    04:00 +25°C° 0 mm 3 mps 759 mmHg 76%
    05:00 +25°C° 0 mm 3 mps 759 mmHg 74%
    06:00 +24°C° 0 mm 3 mps 759 mmHg 72%
    07:00 +26°C° 0 mm 4 mps 759 mmHg 67%
    08:00 +28°C° 0 mm 4 mps 759 mmHg 62%
    09:00 +29°C° 0 mm 4 mps 759 mmHg 56%
    10:00 +32°C° 0 mm 4 mps 759 mmHg 49%
    11:00 +34°C° 0 mm 4 mps 759 mmHg 42%
    12:00 +36°C° 0 mm 3 mps 759 mmHg 34%
    13:00 +37°C° 0 mm 3 mps 758 mmHg 33%
    14:00 +37°C° 0 mm 3 mps 757 mmHg 31%
    15:00 +37°C° 0 mm 4 mps 757 mmHg 30%
    16:00 +35°C° 0 mm 3 mps 757 mmHg 36%
    17:00 +33°C° 0 mm 3 mps 757 mmHg 43%
    18:00 +30°C° 0 mm 3 mps 757 mmHg 50%
    19:00 +29°C° 0 mm 3 mps 757 mmHg 56%
    20:00 +28°C° 0 mm 2 mps 758 mmHg 63%
    21:00 +27°C° 0 mm 2 mps 758 mmHg 70%
    22:00 +27°C° 0 mm 2 mps 758 mmHg 73%
    23:00 +26°C° 0 mm 2 mps 759 mmHg 77%

    Day after tomorrow, 28 May, Monday

    Time Temperature Precipitation Wind Pressure Humidity
    00:00 +26°C° 0 mm 1 mps 759 mmHg 80%
    01:00 +26°C° 0.1 mm 2 mps 759 mmHg 81%
    02:00 +26°C° 0.1 mm 2 mps 758 mmHg 81%
    03:00 +26°C° 0.1 mm 3 mps 758 mmHg 82%
    04:00 +25°C° 0.1 mm 3 mps 758 mmHg 81%
    05:00 +25°C° 0.1 mm 4 mps 758 mmHg 81%
    06:00 +25°C° 0.1 mm 4 mps 758 mmHg 81%
    07:00 +26°C° 0 mm 4 mps 759 mmHg 73%
    08:00 +28°C° 0 mm 4 mps 759 mmHg 65%
    09:00 +29°C° 0 mm 4 mps 759 mmHg 56%
    10:00 +32°C° 0 mm 4 mps 759 mmHg 48%
    11:00 +34°C° 0 mm 4 mps 759 mmHg 39%
    12:00 +36°C° 0 mm 4 mps 758 mmHg 31%
    13:00 +37°C° 0 mm 4 mps 758 mmHg 29%
    14:00 +37°C° 0 mm 4 mps 757 mmHg 28%
    15:00 +37°C° 0 mm 3 mps 756 mmHg 27%
    16:00 +36°C° 0 mm 3 mps 757 mmHg 32%
    17:00 +34°C° 0 mm 3 mps 757 mmHg 37%
    18:00 +31°C° 0 mm 2 mps 757 mmHg 42%
    19:00 +29°C° 0 mm 2 mps 757 mmHg 46%
    20:00 +28°C° 0 mm 2 mps 758 mmHg 50%
    21:00 +27°C° 0 mm 2 mps 758 mmHg 54%
    22:00 +27°C° 0 mm 1 mps 759 mmHg 58%
    23:00 +26°C° 0 mm 1 mps 759 mmHg 61%

    29 May, Tuesday

    Time Temperature Precipitation Wind Pressure Humidity
    00:00 +26°C° 0 mm 1 mps 759 mmHg 64%
    01:00 +26°C° 0 mm 2 mps 759 mmHg 63%
    02:00 +25°C° 0 mm 2 mps 759 mmHg 62%
    03:00 +25°C° 0 mm 2 mps 758 mmHg 61%
    04:00 +25°C° 0 mm 2 mps 758 mmHg 63%
    05:00 +24°C° 0 mm 2 mps 758 mmHg 64%
    06:00 +24°C° 0 mm 3 mps 759 mmHg 65%
    07:00 +26°C° 0 mm 3 mps 759 mmHg 60%
    08:00 +27°C° 0 mm 4 mps 759 mmHg 54%
    09:00 +29°C° 0 mm 5 mps 760 mmHg 49%
    10:00 +32°C° 0 mm 5 mps 759 mmHg 43%
    11:00 +34°C° 0 mm 5 mps 759 mmHg 36%
    12:00 +36°C° 0 mm 5 mps 758 mmHg 30%
    13:00 +36°C° 0 mm 4 mps 758 mmHg 29%
    14:00 +37°C° 0 mm 4 mps 757 mmHg 29%
    15:00 +37°C° 0 mm 3 mps 756 mmHg 28%
    16:00 +36°C° 0 mm 3 mps 756 mmHg 32%
    17:00 +34°C° 0 mm 2 mps 757 mmHg 35%
    18:00 +31°C° 0 mm 2 mps 757 mmHg 39%
    19:00 +30°C° 0 mm 2 mps 757 mmHg 41%
    20:00 +29°C° 0 mm 2 mps 758 mmHg 43%
    21:00 +28°C° 0 mm 2 mps 759 mmHg 45%
    22:00 +28°C° 0 mm 2 mps 759 mmHg 47%
    23:00 +28°C° 0 mm 3 mps 759 mmHg 49%

    30 May, Wednesday

    Time Temperature Precipitation Wind Pressure Humidity
    00:00 +27°C° 0 mm 3 mps 759 mmHg 51%
    01:00 +27°C° 0 mm 3 mps 759 mmHg 53%
    02:00 +26°C° 0 mm 4 mps 758 mmHg 55%
    03:00 +25°C° 0 mm 4 mps 758 mmHg 57%
    04:00 +25°C° 0 mm 5 mps 759 mmHg 57%
    05:00 +24°C° 0 mm 6 mps 759 mmHg 58%
    06:00 +24°C° 0 mm 6 mps 759 mmHg 59%
    07:00 +26°C° 0 mm 7 mps 760 mmHg 55%
    08:00 +28°C° 0 mm 8 mps 760 mmHg 51%
    09:00 +29°C° 0 mm 8 mps 760 mmHg 48%
    10:00 +32°C° 0 mm 8 mps 760 mmHg 43%
    11:00 +33°C° 0 mm 7 mps 759 mmHg 38%
    12:00 +35°C° 0 mm 7 mps 759 mmHg 33%
    13:00 +35°C° 0 mm 6 mps 758 mmHg 33%
    14:00 +36°C° 0 mm 5 mps 757 mmHg 32%
    15:00 +36°C° 0 mm 5 mps 757 mmHg 31%
    16:00 +35°C° 0 mm 4 mps 757 mmHg 35%
    17:00 +33°C° 0 mm 3 mps 757 mmHg 38%
    18:00 +31°C° 0 mm 3 mps 757 mmHg 42%
    19:00 +30°C° 0 mm 3 mps 758 mmHg 43%
    20:00 +29°C° 0 mm 3 mps 759 mmHg 45%
    21:00 +29°C° 0 mm 3 mps 759 mmHg 46%
    22:00 +29°C° 0 mm 4 mps 759 mmHg 48%
    23:00 +28°C° 0 mm 5 mps 760 mmHg 51%

    31 May, Thursday

    Time Temperature Precipitation Wind Pressure Humidity
    00:00 +28°C° 0 mm 6 mps 760 mmHg 53%
    01:00 +27°C° 0 mm 7 mps 759 mmHg 56%
    02:00 +27°C° 0 mm 7 mps 759 mmHg 59%
    03:00 +26°C° 0 mm 7 mps 759 mmHg 62%
    04:00 +24°C° 0 mm 7 mps 759 mmHg 62%
    05:00 +24°C° 0 mm 7 mps 760 mmHg 62%
    06:00 +24°C° 0 mm 7 mps 760 mmHg 61%
    07:00 +26°C° 0 mm 7 mps 760 mmHg 55%
    08:00 +27°C° 0 mm 8 mps 761 mmHg 48%
    09:00 +29°C° 0 mm 8 mps 761 mmHg 41%
    10:00 +31°C° 0 mm 8 mps 760 mmHg 39%
    11:00 +33°C° 0 mm 7 mps 760 mmHg 37%
    12:00 +34°C° 0 mm 7 mps 759 mmHg 34%
    13:00 +35°C° 0 mm 6 mps 759 mmHg 33%
    14:00 +35°C° 0 mm 5 mps 758 mmHg 33%
    15:00 +36°C° 0 mm 4 mps 757 mmHg 32%
    16:00 +34°C° 0 mm 4 mps 757 mmHg 36%
    17:00 +33°C° 0 mm 3 mps 758 mmHg 39%
    18:00 +31°C° 0 mm 2 mps 758 mmHg 43%
    19:00 +30°C° 0 mm 3 mps 758 mmHg 44%
    20:00 +30°C° 0 mm 3 mps 759 mmHg 46%
    21:00 +30°C° 0 mm 3 mps 760 mmHg 47%
    22:00 +29°C° 0 mm 4 mps 760 mmHg 51%
    23:00 +28°C° 0 mm 6 mps 759 mmHg 56%
    Show more